Wind_Speed
5 6 5 5 5 5 5 5 6 6 6 6 6 6 7 8 9 9 9 9 9 11 11 12 12 12 13 13 13 14 15 15 15 15 15 15 16 16 17 16 15 14 13
5 6 5 5 5 5 5 6 6 6 6 6 6 6 7 8 8 9 9 9 9 10 11 11 11 11 11 12 13 14 15 14 15 15 15 15 16 16 17 17 16 15 15
5 5 5 5 5 5 6 6 6 6 5 5 5 6 7 7 7 8 8 8 9 9 10 10 10 10 10 11 12 13 13 14 14 14 14 15 15 15 16 17 16 16 16
5 5 5 5 5 5 6 6 5 5 4 4 5 5 6 6 7 7 8 8 8 8 9 9 9 9 10 11 11 12 13 13 14 14 14 15 15 15 16 16 16 16 16
5 5 5 5 5 5 5 5 4 4 3 3 3 4 5 6 6 7 7 7 8 9 9 9 9 9 10 10 11 12 12 13 13 13 14 14 15 15 16 17 17 17 17
4 4 5 5 5 5 5 4 3 3 3 2 2 3 4 5 5 6 6 7 8 9 9 9 10 10 10 10 11 11 12 13 13 14 15 15 15 15 16 17 18 18 18
4 4 4 5 4 4 4 3 3 3 3 2 2 3 4 4 4 5 6 7 7 8 9 9 10 10 11 11 12 12 13 14 14 14 15 15 15 16 16 17 18 19 19
5 4 4 4 4 3 3 2 2 3 3 2 2 3 3 4 4 4 5 6 7 7 8 8 9 10 11 11 12 13 14 14 15 16 16 17 17 16 17 17 18 19 20
4 3 3 3 3 2 2 2 2 2 2 1 1 2 3 3 4 4 5 5 6 7 7 8 9 10 11 11 11 12 14 14 15 16 16 17 18 18 18 18 18 18 19
3 3 3 3 2 2 2 2 2 2 2 1 1 1 2 3 4 4 4 5 6 6 7 8 8 9 11 11 12 13 14 15 15 16 17 17 18 19 19 19 19 19 20
3 3 3 3 2 2 2 3 2 2 2 1 1 1 1 2 3 4 5 5 6 6 6 7 8 9 10 11 11 13 14 14 15 15 16 17 17 18 18 18 19 20 20
4 4 3 3 3 3 3 2 2 1 1 1 1 1 2 2 3 4 4 5 6 6 6 7 8 9 10 11 11 12 12 13 14 15 15 16 17 18 18 19 20 20 20
5 4 4 4 4 4 3 2 2 2 2 2 2 2 2 3 3 3 4 4 5 6 6 7 8 8 9 10 11 11 11 12 13 13 14 15 16 17 18 19 20 21 20
5 5 4 4 4 4 5 4 4 3 3 3 3 3 3 3 3 3 3 3 4 5 6 7 8 9 9 10 10 11 11 12 12 12 12 14 15 16 17 17 18 20 20
6 5 5 5 4 4 3 3 3 4 4 4 4 3 4 4 3 4 4 4 5 5 6 7 7 8 9 10 11 11 12 12 12 12 12 13 14 15 15 15 17 19 20
7 7 6 6 5 4 4 4 4 5 5 5 5 5 5 5 5 5 5 5 6 6 7 7 8 8 9 10 11 11 12 12 12 12 13 14 15 15 15 15 17 18 19
9 8 7 6 6 6 6 6 6 6 6 6 6 6 6 6 6 6 7 7 8 8 9 9 10 10 11 11 11 12 12 13 13 14 14 15 16 17 17 17 18 19 21
10 9 8 7 7 7 7 7 7 7 6 6 6 7 7 7 8 8 9 9 9 10 11 11 12 12 13 13 13 14 14 14 15 15 16 16 17 18 19 19 20 21 22
10 9 9 8 8 8 8 8 8 8 8 8 8 8 8 8 9 10 11 11 11 12 13 13 13 14 15 15 15 16 16 17 18 18 18 19 19 20 20 21 22 23 24
11 11 10 10 10 9 10 10 10 10 9 9 9 10 10 10 11 11 12 13 14 14 15 15 15 16 17 17 17 17 18 19 19 20 20 20 21 21 22 23 23 24 25
13 12 12 11 11 11 11 11 11 11 10 10 11 11 12 12 13 14 14 15 15 15 16 16 17 17 17 18 18 19 20 20 21 22 22 22 23 23 24 24 25 25 26
14 13 13 13 13 13 13 12 12 12 12 12 12 13 13 14 15 15 16 17 17 17 17 18 18 19 19 20 20 20 21 22 22 23 24 25 25 25 26 26 27 27 28
15 15 15 15 15 15 15 15 15 15 15 15 15 15 16 16 16 17 17 18 18 18 19 19 19 20 20 20 21 21 22 23 24 25 26 26 27 27 27 28 28 29 30
16 16 15 16 17 17 17 16 17 17 18 18 18 18 18 18 18 19 19 19 19 19 20 20 21 22 22 23 24 24 24 25 26 27 28 29 29 29 30 31 31 31 32
17 17 17 17 17 18 18 18 19 19 20 20 20 20 20 20 21 21 21 21 21 22 22 23 23 24 25 26 27 27 27 29 29 30 31 31 31 31 32 33 34 34 34
18 18 18 19 19 20 20 20 20 21 21 21 22 22 22 22 22 22 22 23 24 24 25 25 26 27 27 29 30 30 30 32 32 33 33 33 33 33 34 35 36 36 36
Wind_Direction
327 322 318 317 318 315 310 304 301 298 292 282 272 257 245 240 239 239 238 238 236 232 232 230 225 228 229 225 222 220 220 220 221 225 224 226 227 227 229 231 234 236 238
328 324 320 317 319 317 314 305 299 297 288 282 269 256 245 238 236 235 234 233 234 234 231 228 224 226 225 220 218 217 219 219 221 223 225 228 230 230 229 231 234 237 240
322 320 318 318 317 316 314 308 302 297 287 277 263 253 243 236 234 232 231 230 231 231 227 223 220 221 220 215 214 216 219 220 221 224 227 230 232 233 232 232 235 238 241
320 320 321 323 324 322 320 313 307 302 294 282 262 249 240 235 231 230 229 229 227 228 224 222 222 222 217 215 215 218 223 223 224 227 228 230 232 234 235 234 235 240 242
323 324 320 323 329 326 321 317 310 307 304 289 264 244 238 235 231 229 230 230 230 230 229 225 226 225 217 218 219 221 224 227 230 231 231 233 235 237 238 239 238 241 245
319 322 324 325 328 328 320 319 319 314 307 283 261 242 232 230 227 228 230 231 233 234 236 232 230 228 222 222 226 226 228 231 233 235 237 240 240 242 242 241 241 243 245
310 316 324 328 330 330 324 325 329 324 301 274 257 236 226 221 219 225 229 233 237 238 239 235 231 231 229 227 230 232 233 236 239 242 242 244 246 246 246 246 245 245 248
302 310 320 327 332 333 341 342 337 328 316 291 261 234 222 222 224 230 233 237 241 243 245 239 236 236 235 235 237 237 239 240 242 246 248 249 250 250 251 253 253 251 251
298 306 320 329 333 338 350 350 341 333 330 302 258 223 222 228 229 234 239 243 245 246 247 243 241 242 243 248 250 247 246 246 247 249 251 253 253 253 253 254 255 255 255
285 292 302 320 335 337 346 345 345 356 352 335 290 220 222 237 241 240 239 243 248 251 253 251 249 251 252 253 252 250 250 251 252 252 255 257 258 254 256 257 256 256 256
266 270 278 297 312 309 327 342 351 7 10 7 3 299 258 258 258 252 248 249 251 255 260 257 257 257 257 258 256 254 255 255 254 256 259 262 261 258 257 257 257 257 257
255 259 264 271 281 290 297 318 331 338 345 357 346 312 290 279 272 266 262 259 259 261 262 260 258 259 262 264 263 259 258 257 259 259 263 264 264 262 259 256 256 257 258
254 256 263 268 275 275 276 281 286 303 312 316 308 301 299 299 288 284 276 272 269 265 264 264 264 264 267 267 268 265 263 263 264 264 267 267 267 266 262 258 256 256 259
253 258 263 272 283 272 265 267 276 292 301 302 300 293 294 299 293 294 282 275 278 275 276 274 273 274 270 270 270 269 270 270 269 270 272 272 270 268 265 261 258 257 260
250 251 259 266 274 287 286 280 280 284 286 291 294 293 292 293 294 295 286 281 280 281 284 282 282 280 275 272 272 271 272 272 273 270 273 276 274 272 269 265 261 260 262
249 249 250 256 265 275 282 286 291 289 287 285 281 282 286 288 290 294 289 285 286 286 289 287 286 285 284 278 275 274 275 275 277 277 278 278 278 279 276 272 267 266 265
248 248 251 253 257 265 274 279 283 287 285 281 280 281 284 286 290 293 291 289 290 289 288 287 286 285 287 283 277 277 279 278 279 281 282 281 279 278 276 274 272 271 271
246 248 252 253 258 262 269 277 280 280 281 281 279 278 283 288 288 288 287 288 290 289 289 288 286 285 288 288 283 280 282 281 281 280 283 284 282 280 279 279 277 277 276
249 252 256 257 260 263 271 277 278 277 277 279 279 278 281 285 289 289 288 286 287 288 290 289 288 287 288 288 286 284 283 285 284 283 283 285 284 281 280 280 280 280 280
251 254 256 259 262 267 272 274 273 275 274 276 277 279 283 286 288 289 289 289 287 286 288 290 289 287 286 287 286 284 283 284 285 285 284 285 285 284 283 282 282 282 282
251 256 255 257 263 268 271 271 271 274 273 274 277 281 283 286 288 290 290 291 291 291 291 292 291 290 289 289 287 286 286 286 287 287 286 286 286 286 285 283 282 282 282
251 255 256 260 264 268 270 271 273 273 273 274 277 281 285 288 289 291 289 289 288 290 291 291 289 290 289 289 288 288 288 288 289 289 289 289 289 288 288 287 285 285 284
255 257 259 262 265 268 269 270 271 274 275 275 278 281 284 287 289 292 290 288 288 288 289 290 290 290 290 290 289 289 289 290 290 290 290 290 290 290 290 289 288 288 287
259 259 264 266 266 267 268 270 273 274 274 276 278 280 282 284 286 287 288 288 288 288 289 290 290 290 290 289 288 289 289 290 291 292 291 291 291 291 292 290 289 288 287
259 262 266 269 270 270 270 272 274 275 276 277 279 280 281 283 285 287 287 287 287 287 288 290 291 290 289 288 287 289 288 289 290 291 291 291 291 292 291 290 289 288 287
261 265 268 271 272 273 273 274 275 277 277 277 278 279 280 283 284 286 287 288 289 289 289 290 291 290 289 289 288 290 290 290 291 291 290 290 291 291 291 290 289 287 287
Height
5892 5891 5889 5888 5887 5886 5885 5884 5884 5883 5882 5881 5881 5881 5881 5881 5881 5882 5883 5883 5884 5885 5885 5886 5886 5887 5888 5887 5888 5889 5892 5895 5897 5899 5901 5902 5903 5905 5906 5907 5909 5910 5911
5891 5890 5889 5887 5886 5885 5884 5883 5882 5882 5881 5880 5879 5879 5879 5880 5880 5880 5881 5882 5882 5883 5883 5884 5885 5885 5886 5886 5887 5888 5891 5893 5895 5897 5899 5900 5901 5903 5904 5905 5906 5908 5909
5890 5889 5888 5887 5885 5884 5883 5882 5881 5880 5879 5879 5878 5878 5878 5878 5878 5879 5879 5880 5881 5881 5882 5882 5883 5884 5885 5885 5886 5888 5890 5892 5893 5895 5897 5898 5899 5900 5901 5903 5904 5905 5906
5889 5888 5887 5886 5884 5883 5882 5881 5880 5879 5878 5877 5877 5877 5877 5877 5877 5878 5878 5879 5879 5880 5880 5881 5882 5883 5884 5885 5886 5887 5888 5890 5891 5893 5894 5895 5897 5898 5899 5900 5901 5902 5903
5888 5887 5886 5885 5883 5882 5881 5880 5879 5878 5877 5877 5876 5876 5876 5876 5876 5877 5877 5878 5878 5879 5879 5880 5881 5882 5882 5883 5884 5886 5887 5888 5889 5890 5892 5893 5894 5895 5896 5897 5898 5899 5900
5888 5886 5885 5884 5883 5882 5881 5879 5878 5877 5877 5876 5876 5875 5875 5875 5875 5876 5876 5877 5877 5878 5878 5879 5879 5880 5881 5882 5883 5884 5885 5886 5887 5888 5889 5890 5891 5892 5893 5894 5895 5896 5897
5887 5886 5885 5883 5882 5881 5880 5879 5878 5877 5876 5875 5875 5875 5875 5875 5875 5875 5875 5876 5876 5877 5877 5877 5878 5878 5879 5880 5881 5882 5883 5884 5885 5886 5886 5887 5888 5889 5890 5890 5891 5892 5893
5886 5885 5884 5883 5882 5880 5879 5878 5878 5877 5876 5875 5875 5874 5875 5875 5875 5875 5875 5875 5875 5876 5876 5876 5876 5877 5877 5878 5879 5880 5881 5881 5882 5883 5883 5884 5885 5885 5886 5886 5887 5888 5889
5885 5884 5883 5882 5881 5880 5879 5878 5877 5876 5876 5875 5874 5874 5874 5874 5874 5874 5874 5874 5875 5875 5875 5875 5875 5876 5876 5876 5877 5877 5878 5878 5879 5879 5880 5880 5881 5881 5881 5882 5883 5884 5884
5884 5883 5882 5881 5881 5880 5879 5878 5877 5876 5875 5875 5874 5874 5874 5874 5874 5874 5874 5874 5874 5874 5874 5874 5874 5874 5874 5874 5874 5874 5875 5875 5876 5876 5876 5876 5876 5876 5877 5878 5878 5879 5879
5883 5882 5881 5881 5880 5879 5878 5878 5877 5876 5875 5875 5874 5874 5873 5873 5873 5873 5873 5873 5872 5872 5872 5872 5872 5872 5872 5872 5872 5872 5872 5872 5872 5872 5872 5871 5871 5871 5872 5873 5873 5874 5875
5882 5881 5880 5880 5879 5879 5878 5877 5876 5876 5875 5874 5874 5873 5873 5873 5872 5872 5871 5871 5871 5870 5870 5870 5870 5870 5870 5869 5869 5869 5869 5869 5869 5869 5868 5867 5866 5865 5866 5867 5868 5869 5870
5880 5880 5879 5879 5878 5878 5877 5876 5876 5875 5875 5874 5874 5873 5872 5872 5871 5870 5870 5869 5869 5869 5868 5868 5867 5867 5867 5867 5866 5866 5866 5866 5865 5865 5864 5862 5861 5860 5860 5860 5861 5863 5864
5879 5879 5878 5878 5877 5876 5875 5875 5875 5875 5874 5873 5873 5872 5871 5871 5870 5869 5869 5869 5868 5867 5867 5866 5865 5865 5864 5864 5863 5863 5863 5863 5862 5862 5861 5859 5858 5856 5855 5855 5856 5857 5859
5878 5877 5877 5876 5876 5875 5875 5874 5874 5873 5873 5873 5872 5871 5870 5870 5869 5869 5868 5868 5868 5867 5866 5865 5864 5863 5862 5862 5861 5861 5861 5860 5859 5859 5858 5857 5855 5854 5852 5851 5851 5852 5854
5876 5876 5876 5875 5875 5874 5874 5873 5873 5872 5872 5871 5871 5870 5870 5869 5868 5868 5867 5866 5866 5865 5864 5863 5862 5861 5860 5859 5859 5858 5858 5857 5857 5856 5855 5853 5852 5851 5850 5849 5849 5849 5849
5874 5874 5874 5874 5873 5873 5872 5872 5872 5871 5871 5870 5870 5869 5869 5868 5867 5866 5866 5865 5864 5863 5862 5861 5860 5859 5858 5856 5856 5855 5855 5854 5853 5852 5851 5850 5849 5848 5847 5846 5845 5845 5844
5872 5872 5872 5872 5872 5871 5871 5871 5870 5869 5869 5869 5868 5868 5867 5866 5866 5865 5864 5863 5862 5861 5860 5858 5857 5856 5855 5854 5853 5852 5851 5851 5850 5849 5848 5846 5845 5843 5842 5841 5840 5840 5839
5870 5870 5870 5870 5870 5869 5869 5869 5868 5868 5867 5867 5866 5866 5865 5865 5864 5863 5862 5861 5859 5858 5857 5855 5854 5853 5852 5850 5849 5849 5848 5847 5845 5844 5843 5842 5840 5839 5837 5836 5835 5834 5833
5867 5867 5867 5868 5868 5867 5867 5866 5866 5865 5865 5865 5864 5863 5863 5862 5861 5860 5859 5858 5856 5855 5853 5852 5851 5849 5848 5846 5845 5844 5843 5842 5841 5839 5838 5837 5835 5834 5832 5831 5829 5828 5827
5864 5865 5865 5865 5865 5865 5864 5864 5863 5863 5862 5862 5861 5861 5860 5859 5858 5857 5856 5854 5853 5851 5850 5848 5847 5845 5844 5842 5841 5840 5838 5837 5836 5834 5832 5831 5829 5828 5826 5824 5823 5821 5820
5861 5862 5862 5862 5862 5861 5861 5861 5860 5860 5859 5859 5858 5858 5857 5856 5855 5854 5852 5851 5849 5848 5846 5844 5842 5841 5839 5837 5836 5834 5833 5832 5830 5829 5826 5825 5823 5821 5819 5817 5816 5814 5812
5857 5858 5858 5858 5858 5858 5858 5857 5857 5856 5856 5855 5855 5854 5853 5852 5851 5849 5848 5846 5845 5843 5841 5840 5838 5836 5834 5832 5830 5829 5827 5825 5824 5822 5820 5818 5816 5814 5811 5809 5807 5806 5804
5853 5854 5854 5854 5854 5854 5853 5853 5853 5852 5851 5851 5850 5849 5848 5847 5846 5845 5843 5841 5840 5838 5836 5834 5832 5830 5828 5826 5824 5822 5820 5819 5817 5814 5812 5810 5808 5806 5803 5801 5799 5796 5795
5849 5849 5850 5850 5849 5849 5849 5848 5848 5847 5847 5846 5845 5844 5843 5842 5841 5839 5838 5836 5834 5832 5830 5828 5826 5823 5821 5819 5817 5815 5813 5811 5809 5807 5804 5801 5799 5797 5794 5792 5789 5786 5784
5844 5845 5845 5845 5844 5844 5844 5843 5843 5842 5841 5840 5839 5838 5837 5836 5835 5833 5832 5830 5828 5826 5824 5822 5819 5817 5814 5812 5809 5807 5804 5802 5800 5797 5794 5792 5790 5787 5785 5782 5779 5776 5774